[Iaude] MPEC G72: 2024 GV [a=2.71,e=0.62,i=3.3,H=24.2]

mpec at cfa.harvard.edu mpec at cfa.harvard.edu
Fri Apr 5 20:55:52 EDT 2024


M.P.E.C. 2024-G72                                 Issued 2024 April 6, 00:54 UT

     The Minor Planet Electronic Circulars contain information on unusual
         minor planets, routine data on comets and natural satellites,
         and occasional editorial announcements.  They are published
    on behalf of Division F of the International Astronomical Union by the
          Minor Planet Center, Smithsonian Astrophysical Observatory,
                          Cambridge, MA 02138, U.S.A.
			  
             Prepared using the Tamkin Foundation Computer Network

                              MPC at CFA.HARVARD.EDU
            URL https://www.minorplanetcenter.net/    ISSN 1523-6714

                                    2024 GV                                     


Observations:
     K24G00V*KC2024 04 04.20921 13 28 29.01 -07 09 55.2          19.8 GVEG072W94
     K24G00V KC2024 04 04.21529 13 28 31.00 -07 10 19.6          19.9 GVEG072W94
     K24G00V KC2024 04 04.22144 13 28 33.10 -07 10 45.7          19.9 GVEG072W94
     K24G00V KC2024 04 04.27556 13 28 51.48 -07 14 32.5                VEG072X10
     K24G00V KC2024 04 04.28094 13 28 53.34 -07 14 55.1          19.9 GVEG072X10
     K24G00V KC2024 04 04.28630 13 28 55.15 -07 15 17.5          19.9 GVEG072X10
     K24G00V 1C2024 04 04.31636513 29 08.956-07 18 38.92         20.03GVEG072G96
     K24G00V 1C2024 04 04.32192313 29 10.871-07 19 02.50         20.13GVEG072G96
     K24G00V 1C2024 04 04.32747913 29 12.768-07 19 26.15         20.01GVEG072G96
     K24G00V 1C2024 04 04.33303313 29 14.676-07 19 49.66         20.16GVEG072G96
     K24G00V 1C2024 04 04.99166 13 33 27.26 -08 07 59.0          20.8 VXEG072033
     K24G00V 1C2024 04 04.99212 13 33 27.42 -08 08 00.9          21.2 VXEG072033
     K24G00V 1C2024 04 04.99258 13 33 27.54 -08 08 02.7          20.7 VXEG072033
     K24G00V KC2024 04 05.26312913 35 17.50 -08 28 14.1          19.5 GXEG072858
     K24G00V KC2024 04 05.26989213 35 20.05 -08 28 45.1          20.0 GXEG072858
     K24G00V KC2024 04 05.27703613 35 22.72 -08 29 18.2          19.9 GXEG072858
     K24G00V KB2024 04 05.29228 13 35 27.641-08 30 32.29         19.7 GVEG072734
     K24G00V KB2024 04 05.30022 13 35 30.658-08 31 08.98         19.7 GVEG072734
     K24G00V KB2024 04 05.30817 13 35 33.638-08 31 45.16         19.7 GVEG072734
     K24G00V KC2024 04 05.88758 13 39 39.15 -09 15 47.5                VEG072M21
     K24G00V KC2024 04 05.90743 13 39 47.07 -09 17 24.8          19.5 GVEG072M21
     K24G00V KB2024 04 05.97949513 40 17.10 -09 24 43.3          19.2 GXEG072958
     K24G00V KB2024 04 05.98580313 40 19.62 -09 25 14.5          19.5 GXEG072958
     K24G00V KB2024 04 05.99208113 40 22.23 -09 25 44.6          19.3 GXEG072958

Observer details:
033 Karl Schwarzschild Observatory, Tautenburg.  Observers S. Melnikov, C.
    Hogner, F. Ludwig, M. Hartmann, B. Stecklum.  Measurer B. Stecklum.
    1.34-m f/3 Schmidt + CCD.
734 Farpoint Observatory, Eskridge.  Observers D. Cromer, G. Hug, D. Goodin,
    R. Valentine, P. Lessig.  Measurer G. Hug.  0.69-m f/3.54 reflector + CMO.
858 Tebbutt Observatory, Edgewood.  Observer F. B. Zoltowski.  0.51-m f/8.1
    Schmidt-Cassegrain + CCD.
958 Observatoire de Dax.  Observer P. Dupouy.  0.50-m f/4.5 Reflector + CMO.
G96 Mt. Lemmon Survey.  Observer G. J. Leonard.  Measurers T. Beuden, V. F.
    Carvajal, D. Fay, J. B. Fazekas, D. C. Fuls, A. R. Gibbs, A. D. Grauer, H.
    Groeller, J. K. Hogan, R. A. Kowalski, S. M. Larson, G. J. Leonard, D.
    Rankin, R. L. Seaman, F. C. Shelly, K. W. Wierzchos.  1.5-m reflector +
    10K CCD.
M21 Schiaparelli Southern Observatory, Hakos.  Observers A. Aletti, F.
    Bellini, L. Buzzi, G. Galli.  Measurer L. Buzzi.  0.36-m f/8.4 reflector +
    CCD.
W94 MAP, San Pedro de Atacama.  Observers A. Maury, G. Attard.  Measurers A.
    Maury, G. Attard, D. Parrott, F. Signoret, J.-M. Mari.  0.36-m f/1.9
    Schmidt astrograph + CCD.
X10 OVTLN, San Pedro de Atacama.  Observers A. Maury, G. Attard, F. Signoret.
    Measurers A. Maury, G. Attard, D. Parrott, J.-M. Mari, F. Signoret.
    0.50-m f/4  reflector + CCD.

Orbital elements:
2024 GV                                                  Earth MOID = 0.0358 AU
Epoch 2024 Mar. 31.0 TT = JDT 2460400.5                 Veres                   
M 352.30260              (2000.0)            P               Q                  
n   0.22076900     Peri.  211.55715     -0.63816087     +0.76968254             
a   2.7112984      Node    18.80855     -0.69394177     -0.56466745             
e   0.6194186      Incl.    3.27623     -0.33345993     -0.29789168             
P   4.46           H   24.26          G   0.15           U   8                  
Residuals in seconds of arc
240404 W94  0.2-  0.9-    240404 G96  0.0   0.1-    240405 734  0.1-  0.1-
240404 W94  1.1-  0.3+    240404 G96  0.0   0.0     240405 734  0.1+  0.3-
240404 W94  0.7-  0.0     240404 033  0.1+  0.3-    240405 734  0.4-  0.1+
240404 X10  0.0   0.3+    240404 033  0.1-  0.1-    240405 M21  0.2+  0.1+
240404 X10  0.4+  0.2+    240404 033  0.9-  0.2+    240405 M21  0.3-  0.6-
240404 X10  0.1+  0.3+    240405 858  0.4+  0.2-    240405 958  0.6+  0.7+
240404 G96  0.0   0.0     240405 858  0.3+  0.1-    240405 958  0.1-  0.3+
240404 G96  0.1+  0.0     240405 858  0.1-  0.3-    240405 958  0.6+  0.8+

Ephemeris:
2024 GV                  a,e,i = 2.71, 0.62, 3                   q = 1.0319
Date    TT    R. A. (2000) Decl.     Delta      r    Elong.  Phase     V
2024 03 07    12 14 57.7 +05 50 45   0.2972  1.2806   164.0    12.4    22.9
...
2024 03 22    12 38 44.3 +02 10 59   0.1858  1.1804   171.3     7.4    21.5
...
2024 03 30    13 02 43.7 -02 15 16   0.1368  1.1345   172.8     6.3    20.7
...
2024 04 05    13 33 30.2 -08 07 21   0.1055  1.1046   170.6     8.5    20.2
2024 04 06    13 40 24.2 -09 25 11   0.1009  1.1001   169.6     9.4    20.1
2024 04 07    13 47 58.7 -10 49 35   0.09642 1.0956   168.4    10.6    20.0
...
2024 04 13    14 52 31.2 -21 40 01   0.07537 1.0718   155.7    22.7    19.9
...
2024 04 21    17 23 36.9 -36 20 07   0.06899 1.0482   127.4    49.6    20.4
...
2024 05 06    20 56 22.9 -34 14 04   0.1146  1.0319    98.5    75.2    22.3

M. P. C. Staff               (C) Copyright 2024 MPC           M.P.E.C. 2024-G72





More information about the Iaude mailing list